Temperature
3 2 2 1 1 0 -0 -1 -2 -2 -3 -3 -4 -4 -4 -4 -4 -5 -4 -4 -5 -5 -5 -5 -5 -5 -5 -4 -4 -3 -3 -2 -1 -0 1 1 2 4 5 6 8 9 11
2 2 1 1 0 -0 -1 -2 -2 -3 -4 -4 -4 -4 -5 -5 -5 -5 -5 -5 -5 -5 -6 -6 -6 -6 -6 -5 -5 -4 -4 -3 -2 -1 -0 1 2 3 4 5 7 8 10
2 1 1 0 -0 -1 -2 -2 -3 -4 -4 -5 -5 -5 -5 -5 -5 -5 -5 -6 -6 -6 -6 -7 -7 -7 -6 -6 -6 -5 -5 -4 -3 -2 -1 -0 1 2 3 5 6 7 9
1 1 0 -0 -1 -2 -2 -3 -3 -4 -4 -5 -5 -5 -5 -5 -5 -5 -6 -6 -6 -6 -7 -7 -8 -8 -7 -7 -7 -6 -6 -5 -4 -3 -2 -1 0 2 3 4 5 6 8
1 1 0 -1 -1 -2 -2 -3 -4 -4 -4 -5 -5 -5 -5 -5 -5 -6 -6 -6 -7 -7 -7 -7 -8 -8 -8 -8 -8 -7 -7 -6 -5 -4 -3 -2 -0 1 2 3 4 6 7
1 1 -0 -1 -1 -2 -3 -3 -4 -4 -5 -6 -6 -6 -5 -5 -5 -6 -6 -7 -7 -7 -7 -8 -8 -8 -8 -9 -9 -8 -7 -7 -6 -5 -4 -2 -1 0 2 3 4 5 6
1 0 -0 -1 -2 -2 -3 -4 -4 -4 -4 -6 -6 -6 -5 -5 -6 -6 -7 -7 -7 -7 -8 -8 -8 -9 -9 -9 -9 -9 -8 -8 -7 -6 -4 -3 -2 -0 1 2 3 4 6
1 0 -0 -1 -2 -2 -3 -4 -5 -5 -5 -6 -8 -9 -9 -8 -8 -7 -7 -7 -8 -8 -8 -8 -9 -9 -9 -9 -9 -9 -9 -8 -7 -6 -5 -3 -2 -1 1 2 3 4 5
1 0 -0 -1 -2 -2 -3 -4 -5 -5 -6 -6 -8 -9 -10 -10 -10 -9 -8 -8 -8 -8 -8 -9 -9 -9 -9 -9 -9 -9 -9 -9 -7 -6 -5 -4 -2 -1 0 1 2 3 5
1 0 -0 -1 -2 -2 -3 -4 -5 -6 -6 -7 -8 -8 -9 -10 -11 -11 -9 -9 -9 -9 -9 -9 -9 -9 -9 -10 -10 -10 -9 -9 -7 -6 -5 -4 -3 -1 -0 1 2 3 4
1 0 -1 -1 -2 -3 -3 -4 -5 -6 -7 -7 -8 -9 -9 -10 -10 -11 -11 -10 -10 -9 -9 -9 -9 -9 -10 -10 -10 -9 -9 -8 -7 -6 -5 -4 -3 -2 -1 0 2 3 4
1 0 -1 -1 -2 -3 -3 -4 -5 -6 -6 -7 -8 -8 -9 -10 -10 -11 -12 -11 -11 -10 -10 -10 -10 -10 -10 -10 -10 -10 -9 -9 -8 -7 -6 -5 -4 -3 -2 -0 1 2 3
1 0 -1 -1 -2 -3 -3 -4 -5 -5 -6 -7 -8 -8 -9 -9 -10 -10 -11 -12 -12 -11 -11 -10 -10 -10 -10 -10 -10 -10 -9 -9 -8 -7 -6 -5 -5 -4 -3 -1 -0 1 2
1 0 -1 -1 -2 -3 -4 -4 -5 -5 -6 -7 -8 -8 -9 -9 -9 -10 -10 -11 -12 -11 -11 -11 -10 -10 -10 -10 -10 -10 -9 -9 -8 -8 -7 -6 -5 -4 -3 -2 -1 -0 1
1 -0 -1 -1 -2 -3 -4 -4 -5 -5 -6 -7 -8 -8 -9 -9 -9 -10 -10 -10 -11 -12 -11 -11 -10 -10 -10 -10 -10 -10 -10 -9 -9 -8 -7 -6 -5 -5 -4 -3 -2 -1 -0
1 -0 -1 -1 -2 -3 -4 -4 -5 -5 -6 -7 -8 -8 -8 -9 -9 -9 -10 -10 -11 -12 -12 -11 -11 -10 -10 -10 -10 -10 -10 -9 -9 -8 -7 -7 -6 -5 -4 -4 -3 -2 -1
0 -0 -1 -1 -2 -3 -3 -4 -4 -5 -6 -7 -8 -8 -8 -9 -9 -9 -9 -10 -10 -11 -12 -11 -11 -10 -10 -10 -10 -10 -10 -9 -9 -8 -8 -7 -6 -6 -5 -4 -3 -3 -1
0 -0 -1 -2 -2 -3 -3 -4 -4 -5 -6 -7 -7 -8 -8 -9 -9 -9 -9 -10 -10 -10 -11 -11 -11 -11 -10 -10 -10 -10 -10 -10 -9 -8 -8 -7 -7 -6 -5 -4 -4 -3 -2
0 -0 -1 -2 -2 -3 -3 -4 -5 -5 -6 -7 -7 -8 -8 -9 -9 -9 -9 -10 -10 -10 -10 -11 -11 -11 -11 -11 -11 -11 -10 -10 -10 -9 -8 -7 -7 -6 -5 -4 -4 -3 -2
0 -0 -1 -2 -2 -3 -3 -4 -5 -5 -6 -7 -7 -8 -8 -9 -9 -9 -9 -9 -9 -10 -10 -10 -11 -11 -11 -11 -11 -11 -11 -11 -10 -9 -9 -8 -7 -6 -5 -5 -4 -3 -2
0 -1 -1 -2 -2 -3 -3 -4 -5 -5 -6 -7 -7 -8 -8 -9 -9 -9 -9 -9 -9 -9 -10 -10 -10 -11 -11 -11 -12 -12 -12 -11 -10 -10 -9 -8 -7 -6 -5 -5 -4 -3 -2
-0 -1 -1 -2 -2 -3 -3 -4 -5 -6 -6 -7 -8 -8 -9 -9 -9 -9 -9 -9 -9 -9 -9 -10 -10 -11 -11 -11 -12 -12 -12 -12 -12 -10 -10 -8 -8 -7 -6 -5 -4 -3 -2
-0 -1 -1 -2 -2 -3 -3 -4 -5 -6 -7 -7 -8 -8 -9 -9 -9 -9 -9 -9 -9 -9 -10 -10 -11 -11 -11 -11 -12 -12 -12 -12 -12 -11 -11 -9 -8 -7 -6 -5 -4 -3 -2
-0 -1 -1 -2 -2 -3 -4 -4 -5 -6 -7 -7 -8 -8 -9 -9 -9 -9 -9 -9 -9 -9 -10 -10 -11 -11 -11 -12 -12 -12 -12 -12 -11 -11 -11 -11 -8 -7 -6 -5 -4 -3 -2
-0 -1 -1 -2 -3 -3 -4 -4 -5 -6 -6 -7 -7 -8 -9 -9 -9 -9 -9 -9 -9 -10 -10 -10 -11 -11 -11 -12 -12 -12 -12 -12 -12 -11 -11 -11 -10 -8 -6 -4 -4 -3 -2
-1 -1 -2 -2 -3 -3 -4 -4 -5 -6 -6 -7 -7 -8 -9 -9 -9 -9 -9 -9 -10 -10 -10 -11 -11 -11 -11 -12 -12 -12 -12 -13 -13 -13 -11 -11 -11 -10 -8 -5 -4 -3 -3
Wind_Speed
5 3 3 4 5 5 6 7 8 9 10 12 12 13 15 16 16 16 17 21 23 24 26 28 30 31 32 33 34 35 35 35 35 35 34 34 33 32 32 31 31 30 28
7 4 2 0 2 3 5 6 8 9 10 11 12 14 15 16 15 17 18 19 21 23 25 27 29 31 33 34 35 35 36 36 36 36 36 35 34 34 32 32 31 30 29
9 6 4 4 4 5 6 7 8 8 8 8 9 13 13 14 15 17 18 17 18 20 24 27 29 31 32 34 35 36 37 37 37 37 36 36 36 35 33 32 31 30 29
11 9 7 7 7 6 7 7 7 4 4 5 5 8 11 13 15 17 16 17 18 18 21 25 28 30 32 34 35 36 37 37 38 38 37 37 37 36 34 32 31 31 30
13 11 10 9 8 7 7 7 4 3 4 6 6 7 7 10 13 14 14 16 17 19 20 23 27 29 31 33 35 36 37 38 38 38 38 38 37 36 34 33 31 31 30
15 13 11 11 9 7 5 5 4 4 5 6 7 8 7 9 11 10 12 14 16 19 20 21 23 24 29 32 33 35 36 38 38 38 38 38 37 36 35 33 31 31 30
16 14 11 11 10 6 5 5 4 5 4 3 4 6 6 7 8 6 9 11 14 18 20 21 21 21 23 28 32 34 35 37 38 38 38 37 37 36 34 32 31 31 30
17 14 14 11 10 6 6 6 4 3 3 2 2 4 5 4 3 7 6 7 9 14 16 21 22 22 22 22 26 33 35 37 37 38 38 37 36 35 33 31 30 30 30
18 16 15 13 11 8 6 7 6 5 4 3 4 3 3 5 8 5 6 7 7 8 11 17 20 21 23 22 23 28 33 36 37 37 37 36 35 33 31 30 29 29 29
17 17 16 15 12 10 7 7 6 6 5 5 4 5 6 6 5 7 6 6 8 10 10 14 17 21 23 22 24 29 34 35 36 35 34 33 33 31 30 29 28 27 27
15 17 16 15 12 11 9 8 6 7 6 6 5 4 6 6 8 8 13 13 11 8 8 9 13 18 22 22 21 26 33 34 34 33 31 31 31 30 28 27 27 26 25
9 14 15 15 14 11 10 10 8 8 7 8 7 6 6 6 6 7 10 14 16 13 10 9 10 14 19 20 22 29 32 33 32 30 28 28 27 27 27 26 26 24 23
8 10 13 12 12 13 13 12 8 8 8 9 9 8 8 9 8 9 11 14 16 16 11 9 8 12 17 18 20 29 29 31 31 30 28 26 25 26 25 24 24 23 21
10 10 13 13 14 14 13 11 7 8 7 9 11 9 9 9 9 10 10 12 15 16 14 10 7 8 13 17 21 28 23 29 31 30 28 26 25 24 24 23 23 22 21
9 11 12 11 12 13 12 10 8 9 8 9 10 11 10 10 9 10 10 11 11 15 19 13 8 7 11 16 22 21 19 27 30 29 28 26 25 24 23 22 22 21 21
11 10 11 11 10 10 11 9 9 9 10 10 9 10 11 10 9 10 11 11 12 13 16 13 11 11 11 16 23 21 20 28 28 28 27 26 25 24 23 23 22 21 21
13 13 12 11 11 11 10 10 10 9 11 11 11 11 13 12 11 10 10 11 11 12 16 16 13 11 11 13 14 16 18 17 18 25 26 26 25 24 24 23 22 22 21
14 13 12 12 12 11 10 11 11 11 11 12 12 12 13 12 12 11 11 12 12 12 14 18 15 12 12 12 12 12 13 15 14 23 26 25 24 23 22 23 22 22 21
14 13 13 13 12 11 11 11 11 11 11 12 12 13 14 13 14 12 13 13 12 13 12 14 15 12 10 10 11 12 13 10 14 18 22 21 20 21 22 22 22 22 21
15 14 14 13 12 11 11 11 11 11 12 13 13 13 14 14 15 15 14 14 13 13 12 12 13 12 10 9 8 10 12 10 11 13 15 16 19 21 21 21 22 21 20
16 14 13 12 12 10 10 11 11 12 12 13 13 13 14 17 20 17 14 12 11 10 11 11 11 11 10 9 9 9 12 12 11 9 9 10 11 10 11 16 18 20 20
14 14 14 13 12 11 16 19 15 12 12 12 12 11 12 15 18 22 25 23 19 14 10 10 10 11 11 10 10 10 11 12 10 4 7 12 9 10 9 8 16 19 19
15 14 13 13 13 14 19 20 20 13 10 10 10 9 10 11 16 11 18 22 20 21 20 13 10 11 11 10 10 12 11 12 12 9 10 13 8 10 9 11 18 19 20
14 14 13 13 12 14 19 20 20 13 9 9 9 9 10 10 12 14 13 11 11 12 15 11 10 11 11 11 11 11 11 11 11 9 7 9 7 8 11 9 17 18 18
14 14 12 13 13 14 18 18 18 7 8 9 9 9 10 10 18 22 13 9 9 10 15 17 17 16 19 19 15 8 8 9 11 7 4 5 5 7 8 8 9 13 14
14 13 12 12 13 12 16 17 17 7 8 8 7 8 13 14 19 20 9 7 9 10 7 8 10 13 11 12 15 7 5 7 8 6 3 3 4 5 6 4 5 6 7
Wind_Direction
144 117 74 41 23 11 358 344 335 328 323 319 315 314 311 309 309 311 313 321 325 325 323 321 319 318 315 313 311 308 306 303 299 296 293 291 288 285 283 281 280 278 278
167 162 160 300 319 317 311 308 303 301 300 300 297 302 300 299 301 305 308 311 318 322 321 319 317 315 313 311 308 306 303 300 297 294 290 289 287 283 280 278 277 276 275
185 185 195 228 254 272 282 288 289 287 288 294 292 295 293 292 297 300 303 301 304 313 317 317 315 313 311 309 307 305 301 298 295 292 289 286 284 281 278 275 273 274 273
198 197 206 228 244 254 264 271 267 272 277 281 281 286 288 289 293 296 296 296 299 302 306 311 311 311 310 308 305 303 300 297 293 290 287 284 281 279 275 273 271 270 271
205 204 213 230 239 242 251 263 264 251 272 283 285 277 275 281 285 289 290 294 295 297 298 303 307 309 308 307 304 301 298 295 292 288 285 282 279 277 274 271 269 268 268
207 209 217 229 231 231 242 246 260 258 254 269 290 289 276 274 274 272 279 292 296 298 299 298 298 299 303 305 303 300 297 294 291 287 284 280 277 275 272 270 268 266 266
207 208 214 221 222 219 229 236 250 271 270 264 285 290 276 259 255 260 270 282 290 294 296 297 295 292 294 299 301 299 296 293 290 286 283 280 275 273 271 269 267 265 265
207 209 212 215 219 219 229 233 224 251 265 280 280 309 315 299 251 275 266 277 285 293 296 299 295 292 290 291 292 295 295 292 289 285 281 279 274 271 270 267 267 263 263
207 210 212 214 217 213 222 229 222 225 249 260 215 238 289 298 313 271 267 281 281 288 290 294 293 292 293 292 291 293 292 291 287 284 280 278 275 271 268 268 268 265 263
207 212 215 216 217 217 219 229 227 217 225 253 242 224 224 242 285 304 294 280 282 289 288 295 296 294 292 289 289 293 294 293 290 285 281 278 275 273 269 269 270 267 265
209 213 215 215 217 219 222 226 230 227 222 235 237 234 241 246 238 263 294 303 300 286 281 283 288 290 290 288 287 291 295 295 293 289 284 281 278 277 276 275 273 271 268
209 214 216 216 219 221 223 227 228 231 233 235 241 237 237 245 250 252 275 293 298 298 289 286 284 286 287 287 290 298 301 302 302 298 293 288 286 283 283 282 279 277 274
209 212 213 214 218 223 227 229 227 234 234 237 240 243 243 246 252 258 271 285 291 295 290 283 272 281 289 291 294 300 303 305 306 305 302 297 292 290 287 287 286 284 284
209 204 208 214 219 224 230 228 229 235 236 239 247 245 249 252 250 252 259 277 290 294 293 285 278 271 284 289 293 301 302 305 307 305 304 302 298 292 289 287 286 288 290
203 204 208 213 220 224 228 227 235 237 238 243 248 250 251 256 254 252 254 258 270 290 296 297 293 275 286 291 296 300 297 301 303 305 303 301 299 294 291 290 287 286 288
202 198 205 212 218 223 227 226 236 240 242 247 249 250 253 257 258 257 257 257 255 266 282 289 289 289 291 295 300 303 301 302 305 304 302 299 296 294 292 290 288 286 285
201 206 209 213 219 224 225 229 236 238 244 252 253 253 257 257 261 262 261 260 259 259 273 284 285 286 285 287 293 294 295 294 295 301 301 299 295 292 289 288 286 284 282
203 206 208 214 220 225 226 229 239 244 244 252 256 257 261 263 261 263 264 263 263 260 266 279 287 288 284 285 285 290 297 298 296 298 299 298 295 291 288 285 284 282 280
203 204 206 214 221 225 227 231 236 244 246 250 253 255 260 261 265 266 264 265 266 266 263 272 282 285 285 286 289 292 292 290 294 298 300 298 297 295 292 286 283 279 275
202 204 207 214 220 224 229 234 238 244 248 251 253 254 256 257 262 266 267 264 264 267 266 269 276 284 287 285 285 296 301 298 298 299 296 297 298 297 292 287 282 279 274
203 203 205 213 219 223 229 233 238 244 248 252 254 254 256 262 266 273 276 272 266 268 273 275 281 289 292 297 295 295 297 301 296 285 292 294 294 290 289 286 282 276 272
201 198 205 211 218 226 240 247 247 241 244 249 256 257 259 269 276 283 290 293 291 285 281 278 283 286 288 288 289 290 293 297 298 286 299 298 292 287 283 273 274 272 268
198 200 205 209 220 231 242 251 257 257 247 247 249 257 269 270 282 281 286 290 290 290 291 288 284 280 282 280 280 284 284 284 285 290 297 292 285 284 282 278 278 273 266
199 202 206 210 220 233 242 251 258 259 253 247 246 250 259 266 272 279 274 273 266 271 277 280 266 268 271 271 265 273 282 286 282 279 277 281 287 286 289 280 279 271 262
199 201 203 207 216 232 240 248 256 251 253 253 252 254 259 260 277 288 288 278 277 277 286 287 289 292 298 302 301 301 299 297 296 293 266 267 292 301 290 277 278 279 271
200 197 203 207 214 224 235 243 252 246 253 257 256 256 271 277 285 293 289 277 282 284 277 285 294 298 298 299 302 297 280 282 287 291 270 282 290 314 308 293 289 293 286
Height
1561 1559 1557 1556 1553 1551 1549 1546 1544 1541 1538 1536 1533 1530 1527 1525 1522 1519 1516 1513 1510 1508 1506 1504 1502 1499 1497 1494 1492 1489 1486 1484 1483 1482 1481 1480 1480 1480 1480 1481 1482 1484 1486
1557 1555 1554 1551 1549 1547 1544 1542 1539 1536 1533 1531 1528 1526 1523 1520 1517 1514 1511 1508 1505 1503 1500 1498 1496 1493 1491 1488 1485 1482 1479 1476 1474 1473 1472 1471 1471 1471 1472 1472 1474 1475 1477
1553 1551 1549 1547 1545 1542 1540 1537 1534 1531 1529 1526 1523 1521 1518 1515 1512 1509 1506 1503 1500 1497 1494 1491 1489 1487 1484 1481 1477 1474 1471 1468 1466 1464 1463 1462 1462 1463 1463 1464 1465 1467 1469
1549 1547 1545 1543 1540 1538 1535 1533 1530 1527 1524 1521 1519 1516 1513 1510 1507 1504 1501 1498 1495 1492 1488 1485 1482 1480 1476 1473 1469 1466 1462 1459 1456 1455 1453 1453 1453 1453 1454 1455 1456 1458 1460
1544 1542 1540 1538 1536 1533 1531 1528 1526 1522 1519 1516 1513 1510 1507 1505 1502 1499 1496 1493 1490 1486 1483 1479 1475 1472 1468 1464 1461 1457 1454 1450 1447 1445 1444 1443 1443 1444 1445 1446 1447 1449 1451
1539 1537 1535 1533 1531 1529 1527 1524 1522 1519 1515 1511 1507 1504 1502 1499 1496 1493 1490 1487 1484 1481 1477 1473 1469 1464 1460 1456 1452 1448 1445 1441 1438 1435 1434 1433 1433 1434 1435 1437 1438 1440 1442
1533 1532 1530 1529 1526 1524 1522 1520 1517 1514 1511 1507 1502 1496 1493 1491 1489 1486 1484 1481 1478 1475 1471 1467 1462 1457 1452 1448 1443 1439 1435 1432 1428 1426 1424 1424 1424 1424 1426 1427 1429 1431 1433
1528 1526 1525 1523 1521 1519 1517 1515 1512 1509 1507 1503 1499 1492 1486 1483 1480 1480 1477 1474 1471 1468 1465 1460 1456 1451 1446 1440 1434 1430 1426 1423 1419 1416 1415 1414 1414 1415 1416 1418 1420 1422 1425
1521 1520 1519 1518 1516 1514 1512 1510 1507 1504 1502 1500 1497 1494 1488 1481 1475 1470 1469 1467 1464 1461 1457 1453 1448 1444 1439 1433 1427 1422 1417 1413 1410 1408 1406 1405 1405 1406 1407 1409 1411 1413 1416
1515 1514 1513 1511 1510 1508 1507 1505 1502 1500 1497 1494 1493 1490 1488 1483 1477 1467 1462 1460 1458 1454 1450 1446 1442 1436 1431 1426 1420 1415 1410 1405 1401 1399 1397 1396 1396 1397 1398 1400 1402 1404 1407
1508 1507 1506 1505 1504 1502 1501 1499 1497 1495 1492 1489 1487 1485 1482 1480 1476 1470 1459 1453 1449 1446 1443 1439 1434 1429 1424 1418 1413 1407 1403 1398 1394 1391 1389 1387 1387 1387 1389 1391 1393 1396 1398
1500 1500 1499 1498 1497 1496 1494 1493 1491 1489 1487 1484 1481 1479 1476 1474 1470 1466 1458 1450 1443 1438 1435 1432 1427 1423 1417 1412 1407 1402 1397 1391 1387 1383 1381 1380 1379 1379 1380 1382 1384 1386 1389
1492 1492 1492 1491 1490 1489 1488 1486 1484 1482 1480 1478 1475 1473 1470 1467 1464 1461 1455 1447 1439 1431 1427 1423 1420 1416 1412 1406 1400 1395 1390 1385 1381 1377 1374 1373 1372 1372 1373 1374 1375 1378 1380
1485 1485 1484 1484 1483 1482 1481 1479 1477 1475 1473 1471 1468 1466 1463 1460 1458 1454 1450 1444 1434 1425 1420 1415 1412 1409 1405 1400 1394 1390 1384 1379 1375 1372 1369 1367 1366 1366 1366 1367 1368 1370 1372
1477 1477 1477 1476 1476 1475 1474 1472 1470 1468 1466 1464 1461 1459 1456 1453 1450 1447 1443 1439 1433 1423 1412 1407 1405 1401 1399 1394 1389 1384 1378 1373 1370 1366 1364 1361 1360 1360 1360 1361 1362 1363 1365
1468 1469 1468 1468 1468 1467 1466 1465 1463 1461 1459 1456 1454 1451 1448 1446 1443 1439 1436 1431 1426 1420 1409 1401 1398 1395 1391 1388 1384 1379 1373 1368 1364 1360 1358 1356 1355 1354 1354 1354 1355 1357 1359
1459 1459 1460 1460 1460 1459 1459 1457 1455 1453 1451 1448 1446 1443 1440 1438 1435 1432 1428 1423 1419 1414 1404 1395 1392 1388 1384 1380 1376 1372 1367 1362 1357 1354 1351 1349 1348 1347 1347 1347 1349 1350 1353
1449 1450 1451 1451 1451 1451 1451 1449 1448 1446 1443 1440 1438 1436 1433 1430 1427 1424 1420 1415 1411 1406 1400 1390 1385 1381 1378 1374 1369 1365 1361 1356 1352 1347 1345 1342 1341 1340 1341 1341 1342 1344 1346
1439 1440 1441 1442 1443 1443 1443 1441 1440 1438 1435 1433 1430 1428 1425 1423 1419 1416 1412 1407 1402 1398 1393 1386 1379 1375 1371 1367 1363 1358 1354 1350 1346 1341 1338 1336 1334 1334 1333 1334 1335 1337 1339
1429 1431 1432 1434 1434 1435 1434 1434 1432 1430 1428 1425 1423 1420 1418 1415 1411 1408 1403 1399 1395 1390 1385 1380 1374 1369 1365 1361 1357 1352 1346 1343 1339 1335 1332 1330 1328 1327 1326 1327 1328 1330 1332
1419 1422 1423 1425 1426 1426 1426 1426 1424 1422 1420 1417 1415 1413 1410 1407 1404 1401 1397 1392 1388 1383 1379 1374 1368 1363 1359 1355 1352 1347 1342 1336 1332 1330 1326 1323 1322 1320 1319 1320 1321 1323 1325
1410 1412 1414 1416 1417 1418 1418 1418 1416 1414 1412 1410 1407 1405 1402 1400 1397 1394 1390 1387 1383 1379 1373 1368 1363 1358 1353 1350 1346 1342 1337 1332 1326 1324 1321 1317 1316 1313 1312 1313 1314 1316 1319
1400 1402 1405 1407 1408 1410 1411 1410 1409 1407 1405 1403 1400 1398 1395 1392 1390 1386 1382 1378 1375 1372 1369 1364 1358 1353 1348 1344 1340 1335 1331 1327 1323 1320 1317 1309 1309 1307 1306 1306 1308 1310 1312
1391 1394 1396 1399 1400 1402 1403 1402 1401 1400 1397 1395 1393 1391 1388 1385 1382 1379 1375 1371 1367 1364 1361 1356 1352 1347 1342 1338 1334 1330 1326 1321 1317 1314 1312 1306 1302 1301 1300 1300 1301 1303 1306
1380 1384 1388 1390 1392 1394 1395 1395 1394 1392 1390 1388 1386 1384 1381 1378 1375 1373 1370 1365 1361 1357 1354 1350 1346 1341 1337 1333 1329 1325 1320 1316 1311 1308 1307 1304 1299 1296 1294 1294 1295 1296 1299
1372 1376 1379 1382 1384 1385 1387 1387 1386 1385 1383 1381 1379 1377 1375 1372 1370 1368 1364 1359 1354 1350 1346 1342 1338 1334 1330 1326 1323 1319 1315 1312 1308 1304 1302 1301 1297 1295 1291 1289 1290 1291 1293